Total_Precipitation_Accumulation
0.02 0.06 0.21 0.41 0.96 1.31 1.17 0.72 0.53 0.50 0.55 0.54 0.48 0.44 0.48 0.45 0.58 1.08 0.70 0.39 0.17 0.06 0.04 0.11 0.20 0.17 0.15 0.14 0.15 0.15 0.14 0.14 0.14 0.14 0.11 0.11 0.11 0.11 0.12 0.14 0.16 0.19 0.19 0.22 0.25 0.22 0.22 0.26 0.28
0.03 0.11 0.30 0.80 1.25 1.24 1.11 0.62 0.35 0.44 0.53 0.66 0.65 0.51 0.41 0.42 0.41 0.34 0.31 0.44 0.16 0.09 0.06 0.07 0.16 0.16 0.13 0.12 0.14 0.14 0.14 0.13 0.12 0.13 0.11 0.11 0.12 0.15 0.17 0.18 0.18 0.19 0.21 0.22 0.23 0.21 0.22 0.23 0.30
0.05 0.16 0.36 0.79 0.89 0.82 0.82 0.49 0.37 0.32 0.50 0.73 0.70 0.47 0.46 0.49 0.40 0.28 0.27 0.36 0.20 0.15 0.08 0.09 0.16 0.15 0.13 0.14 0.14 0.13 0.14 0.12 0.12 0.12 0.12 0.13 0.16 0.20 0.23 0.22 0.22 0.22 0.25 0.27 0.27 0.23 0.23 0.24 0.29
0.07 0.21 0.45 0.53 0.37 0.29 0.39 0.43 0.45 0.44 0.63 0.76 0.62 0.52 0.50 0.48 0.43 0.30 0.26 0.37 0.24 0.21 0.14 0.14 0.20 0.19 0.16 0.15 0.13 0.15 0.16 0.14 0.14 0.13 0.14 0.16 0.19 0.24 0.25 0.24 0.26 0.27 0.28 0.27 0.26 0.27 0.27 0.30 0.34
0.06 0.23 0.49 0.38 0.23 0.18 0.21 0.26 0.35 0.51 0.70 0.82 0.69 0.66 0.68 0.48 0.40 0.33 0.27 0.39 0.37 0.29 0.24 0.23 0.27 0.26 0.21 0.17 0.17 0.18 0.18 0.17 0.16 0.14 0.15 0.19 0.22 0.23 0.24 0.24 0.25 0.25 0.29 0.31 0.32 0.34 0.34 0.38 0.43
0.06 0.18 0.34 0.22 0.13 0.13 0.17 0.22 0.37 0.56 0.60 0.69 0.78 0.85 0.80 0.54 0.46 0.39 0.38 0.47 0.49 0.41 0.30 0.36 0.36 0.34 0.28 0.23 0.23 0.24 0.21 0.20 0.19 0.18 0.20 0.23 0.26 0.26 0.26 0.28 0.25 0.23 0.25 0.29 0.35 0.41 0.41 0.42 0.47
0.05 0.11 0.15 0.13 0.09 0.11 0.18 0.29 0.34 0.47 0.55 0.76 0.80 0.83 0.88 0.75 0.60 0.49 0.62 0.85 0.82 0.64 0.47 0.47 0.44 0.39 0.35 0.35 0.34 0.33 0.30 0.27 0.25 0.24 0.24 0.25 0.29 0.31 0.32 0.39 0.34 0.30 0.33 0.34 0.41 0.46 0.54 0.50 0.50
0.03 0.09 0.12 0.10 0.05 0.09 0.16 0.24 0.34 0.48 0.59 0.66 0.76 0.88 0.90 0.78 0.68 0.72 0.92 1.26 1.38 1.24 0.90 0.62 0.56 0.57 0.48 0.42 0.42 0.43 0.36 0.32 0.32 0.32 0.32 0.35 0.39 0.44 0.47 0.48 0.48 0.46 0.49 0.50 0.53 0.53 0.54 0.60 0.63
0.01 0.06 0.10 0.08 0.06 0.10 0.18 0.23 0.29 0.35 0.44 0.66 0.86 1.01 0.90 0.71 0.73 0.93 1.13 1.40 1.57 1.40 1.18 0.95 0.86 0.74 0.66 0.59 0.50 0.55 0.48 0.45 0.46 0.55 0.56 0.61 0.72 0.73 0.77 0.69 0.72 0.72 0.74 0.82 0.86 0.83 0.83 0.87 0.85
0.01 0.04 0.04 0.04 0.04 0.04 0.11 0.20 0.26 0.37 0.62 1.11 1.36 1.23 0.97 0.83 0.93 1.18 1.34 1.32 1.39 1.40 1.30 1.29 1.13 0.99 0.94 0.87 0.88 0.94 0.86 0.86 0.85 1.00 1.01 1.16 1.29 1.12 0.83 0.96 1.15 1.09 1.20 1.30 1.41 1.60 1.46 1.29 1.12
0.00 0.01 0.02 0.02 0.02 0.02 0.05 0.13 0.23 0.42 0.83 1.37 1.60 1.29 1.10 1.05 1.13 1.27 1.57 1.63 1.71 1.69 1.52 1.56 1.43 1.28 1.30 1.33 1.30 1.33 1.39 1.44 1.47 1.47 1.52 1.75 1.67 1.36 1.15 1.32 1.60 1.59 1.62 1.66 1.90 2.10 1.72 1.70 1.73
0.00 0.00 0.00 0.00 0.01 0.01 0.04 0.11 0.29 0.56 0.96 1.25 1.18 1.03 1.03 1.21 1.33 1.51 1.79 2.08 2.14 2.20 2.07 1.84 1.76 1.87 1.83 1.69 1.64 1.50 1.36 1.35 1.43 1.53 1.56 1.87 1.96 1.88 1.79 1.82 1.72 1.88 2.02 2.26 2.25 2.27 2.15 2.14 1.99
0.00 0.00 0.00 0.00 0.01 0.03 0.06 0.13 0.33 0.66 0.87 0.94 0.82 0.85 1.11 1.38 1.55 1.98 2.41 2.50 2.43 2.62 2.75 2.56 2.49 2.41 2.17 2.09 1.74 1.51 1.40 1.25 1.21 1.40 1.55 1.81 1.99 2.06 2.14 1.87 1.78 1.71 1.87 2.12 2.12 2.00 2.11 2.24 2.25
0.00 0.00 0.01 0.01 0.02 0.04 0.07 0.14 0.33 0.57 0.67 0.68 0.76 0.98 1.18 1.56 1.79 2.30 2.82 2.87 2.98 3.21 3.35 3.24 3.19 2.93 2.59 2.29 2.01 1.86 1.60 1.42 1.25 1.34 1.36 1.71 2.02 1.99 1.86 1.84 1.85 1.76 1.87 1.92 1.96 2.02 2.22 2.34 2.45
0.00 0.01 0.06 0.07 0.05 0.06 0.07 0.19 0.41 0.60 0.71 0.67 0.85 1.01 1.37 1.80 2.06 2.38 2.62 2.99 3.40 3.77 3.82 3.73 3.70 3.50 3.30 3.02 2.59 2.17 1.95 1.65 1.57 1.47 1.36 1.62 1.87 1.94 1.90 1.82 1.68 1.72 1.80 1.89 1.94 2.00 2.12 2.03 2.11
0.02 0.05 0.16 0.16 0.10 0.10 0.11 0.39 0.70 0.69 0.69 0.74 0.90 1.24 1.51 1.79 2.18 2.40 2.71 3.02 3.41 3.92 4.28 4.29 3.76 3.66 3.58 3.43 3.07 2.63 2.45 2.26 2.04 1.67 1.46 1.46 1.60 1.69 1.71 1.57 1.54 1.63 1.52 1.54 1.63 1.59 1.66 1.72 1.86
0.05 0.09 0.16 0.25 0.16 0.13 0.24 0.71 1.00 0.76 0.61 0.73 1.02 1.35 1.72 1.91 2.31 2.44 2.63 2.88 3.32 4.17 5.00 4.96 4.36 3.93 3.62 3.48 3.38 3.15 2.86 2.46 2.11 1.79 1.60 1.41 1.32 1.19 1.23 1.20 1.25 1.27 1.24 1.24 1.15 1.35 1.42 1.53 1.63
0.05 0.10 0.22 0.35 0.22 0.20 0.30 0.67 0.70 0.63 0.79 0.78 0.87 1.11 1.44 1.55 1.83 2.09 2.38 2.90 3.68 4.80 5.58 5.45 4.77 4.23 3.83 3.56 3.31 3.12 2.77 2.44 2.06 1.84 1.63 1.33 1.21 1.04 0.98 0.96 0.98 0.92 0.97 1.04 1.08 1.16 1.18 1.18 1.26
0.04 0.09 0.22 0.26 0.20 0.28 0.36 0.56 0.66 0.77 0.95 0.95 0.82 0.86 1.16 1.37 1.63 1.99 2.57 3.44 4.51 5.39 5.66 5.11 4.53 4.11 3.66 3.18 2.57 2.15 1.97 1.84 1.66 1.44 1.15 0.99 0.89 0.89 0.89 0.79 0.78 0.74 0.76 0.79 0.80 0.87 0.89 0.88 0.95
0.06 0.08 0.19 0.26 0.18 0.21 0.35 0.66 0.94 0.91 0.84 0.82 0.84 0.81 0.96 1.35 1.80 2.42 3.41 4.06 4.33 4.44 4.16 3.78 3.45 3.19 2.72 2.25 1.91 1.69 1.59 1.43 1.24 1.14 1.02 0.82 0.72 0.70 0.66 0.67 0.64 0.63 0.68 0.72 0.71 0.71 0.72 0.71 0.76
0.10 0.10 0.18 0.25 0.15 0.16 0.36 0.80 1.06 1.07 0.85 0.72 0.69 0.64 0.89 1.34 1.92 2.72 3.29 3.41 3.15 2.84 2.73 2.65 2.62 2.31 2.13 2.00 1.84 1.73 1.64 1.43 1.18 1.00 0.87 0.71 0.60 0.55 0.54 0.55 0.57 0.60 0.59 0.64 0.67 0.61 0.64 0.65 0.62
0.09 0.06 0.06 0.09 0.15 0.33 0.52 1.02 1.17 0.96 0.90 0.74 0.70 0.67 0.80 1.10 1.41 1.86 2.12 2.02 2.10 2.23 2.25 2.30 2.33 2.04 1.99 1.88 1.52 1.31 1.18 1.06 0.90 0.81 0.80 0.81 0.66 0.53 0.48 0.49 0.47 0.49 0.50 0.61 0.55 0.55 0.59 0.62 0.54
0.04 0.03 0.04 0.11 0.22 0.41 0.60 0.84 0.95 0.75 0.88 0.70 0.57 0.58 0.60 0.79 0.86 0.97 1.10 1.23 1.39 1.50 1.66 1.91 2.09 2.03 1.87 1.66 1.48 1.37 1.17 1.12 1.07 1.01 0.97 0.92 0.81 0.66 0.54 0.54 0.50 0.46 0.43 0.48 0.49 0.58 0.60 0.58 0.53
0.03 0.05 0.12 0.23 0.39 0.89 0.84 0.81 1.01 0.91 0.89 0.67 0.50 0.44 0.49 0.65 0.72 0.76 0.79 0.91 1.02 1.13 1.27 1.53 1.79 1.90 1.85 1.68 1.52 1.40 1.31 1.23 1.14 1.06 1.01 0.89 0.81 0.76 0.65 0.59 0.56 0.50 0.44 0.41 0.44 0.53 0.56 0.61 0.61
0.05 0.07 0.24 0.57 0.98 1.13 0.70 0.78 1.04 0.77 0.67 0.50 0.30 0.27 0.40 0.59 0.72 0.76 0.71 0.65 0.68 0.81 0.97 1.06 1.22 1.44 1.54 1.51 1.42 1.34 1.37 1.23 1.02 0.92 0.87 0.86 0.76 0.67 0.60 0.55 0.53 0.47 0.45 0.47 0.50 0.49 0.49 0.53 0.59
0.05 0.04 0.11 0.22 0.33 0.51 0.66 1.04 1.16 0.81 0.54 0.30 0.18 0.22 0.35 0.49 0.51 0.54 0.54 0.47 0.44 0.54 0.75 0.84 0.99 1.14 1.31 1.30 1.22 1.16 1.19 1.10 0.96 0.96 0.81 0.76 0.73 0.67 0.67 0.63 0.53 0.50 0.51 0.49 0.54 0.48 0.45 0.48 0.50
0.05 0.03 0.04 0.07 0.12 0.31 0.66 0.95 0.90 0.69 0.49 0.30 0.22 0.20 0.20 0.24 0.30 0.38 0.42 0.42 0.39 0.42 0.60 0.71 0.84 1.00 1.17 1.26 1.23 1.12 1.11 1.05 1.00 0.96 0.88 0.75 0.79 0.77 0.80 0.70 0.59 0.59 0.61 0.61 0.62 0.54 0.52 0.52 0.50
0.05 0.04 0.04 0.05 0.11 0.23 0.49 0.87 1.03 0.85 0.57 0.33 0.27 0.22 0.22 0.24 0.24 0.29 0.35 0.35 0.34 0.32 0.38 0.50 0.66 0.85 0.97 1.10 1.07 0.98 1.10 1.07 1.06 1.02 0.92 0.82 0.78 0.76 0.79 0.72 0.64 0.64 0.63 0.65 0.69 0.61 0.62 0.62 0.61
0.07 0.06 0.06 0.05 0.08 0.14 0.33 0.54 0.50 0.44 0.35 0.29 0.30 0.27 0.19 0.19 0.16 0.17 0.22 0.26 0.27 0.26 0.27 0.32 0.44 0.60 0.71 0.78 0.85 0.82 0.90 0.93 0.92 0.95 0.94 0.90 0.83 0.81 0.76 0.73 0.70 0.67 0.66 0.69 0.73 0.73 0.71 0.67 0.70
0.09 0.09 0.09 0.08 0.08 0.09 0.16 0.33 0.29 0.30 0.29 0.25 0.31 0.26 0.19 0.17 0.14 0.14 0.17 0.22 0.25 0.25 0.24 0.27 0.33 0.39 0.49 0.54 0.63 0.68 0.72 0.77 0.76 0.77 0.85 0.90 0.86 0.82 0.80 0.78 0.74 0.65 0.63 0.72 0.77 0.76 0.76 0.76 0.74